Temperature
12 11 11 11 11 11 11 10 10 10 10 10 10 9 9 9 9 9 9 8 8 8 8 8 7 7 7 7 7 6 6 6 6 5 5 4 4 4 4 4 4 3 3
10 10 10 10 10 10 10 9 9 9 9 9 8 8 8 8 8 8 7 7 7 7 7 7 7 6 6 6 6 6 6 5 5 5 4 4 4 3 3 3 3 3 3
9 9 9 9 9 9 9 8 8 8 8 8 7 7 7 7 7 7 6 6 6 6 6 6 6 6 5 5 5 5 5 5 4 4 4 3 3 3 3 2 2 2 2
9 8 8 8 8 8 8 7 7 7 7 6 6 6 6 6 6 6 6 6 5 5 5 5 5 5 5 5 4 4 4 4 4 3 3 3 2 2 2 2 1 1 1
8 8 7 7 7 7 6 6 6 6 5 5 5 5 5 5 5 5 5 5 5 5 4 4 4 4 4 4 4 4 3 3 3 3 2 2 1 1 1 1 0 0 0
7 7 6 6 6 6 5 5 5 5 5 4 4 4 4 4 4 4 4 4 4 4 3 3 3 3 3 3 3 3 3 2 2 2 1 1 1 0 0 -0 -0 -1 -2
7 6 6 5 5 5 4 4 4 4 4 3 3 3 3 3 3 3 3 3 3 3 2 2 2 2 2 2 2 2 2 2 2 1 1 0 -0 -0 -1 -1 -1 -2 -2
6 6 5 5 4 4 3 3 3 3 2 2 2 2 2 2 2 2 2 2 2 2 2 2 2 1 1 1 1 1 1 1 1 0 0 -0 -1 -1 -1 -2 -2 -2 -2
6 5 4 4 3 3 3 2 2 2 2 1 1 1 1 1 1 1 1 1 1 1 1 1 1 1 1 1 0 0 0 0 -0 -0 -1 -1 -1 -2 -2 -2 -3 -3 -4
5 5 4 3 3 2 2 2 1 1 1 1 1 0 0 1 1 1 1 1 1 1 1 0 0 0 0 -0 -0 -1 -1 -1 -1 -1 -2 -2 -2 -2 -3 -3 -3 -4 -4
5 4 3 3 2 2 1 1 1 0 0 0 0 -0 -0 -0 0 0 0 0 0 0 -0 -0 -0 -0 -1 -1 -1 -1 -2 -2 -2 -2 -3 -3 -3 -3 -3 -4 -4 -4 -4
4 3 3 2 2 1 1 0 0 -0 -0 -0 -0 -0 -0 -0 -0 -0 -0 -0 -0 -0 -1 -1 -1 -1 -1 -1 -2 -2 -2 -2 -3 -3 -3 -3 -3 -4 -4 -4 -4 -4 -5
3 3 2 1 1 1 0 0 -0 -0 -0 -1 -1 -1 -1 -1 -0 -0 -1 -1 -1 -1 -1 -1 -1 -1 -2 -2 -2 -2 -2 -3 -3 -3 -3 -4 -4 -4 -4 -4 -4 -5 -5
3 2 2 1 1 0 0 -0 -0 -0 -1 -1 -1 -1 -1 -1 -1 -1 -1 -1 -1 -1 -1 -1 -2 -2 -2 -2 -2 -3 -3 -3 -3 -4 -4 -4 -4 -4 -5 -5 -5 -5 -5
2 2 1 0 0 -0 -0 -0 -1 -1 -1 -1 -1 -1 -1 -0 -1 -1 -1 -1 -1 -1 -2 -2 -2 -2 -2 -2 -3 -3 -3 -3 -4 -4 -4 -4 -5 -5 -5 -5 -5 -6 -6
2 1 1 0 -0 -0 -1 -1 -1 -1 -1 -1 -1 -1 -1 -1 -1 -1 -1 -1 -2 -2 -2 -2 -2 -2 -2 -3 -3 -3 -3 -4 -4 -4 -4 -5 -5 -5 -6 -6 -6 -6 -6
1 1 0 -0 -0 -1 -1 -1 -1 -1 -1 -1 -1 -1 -1 -1 -1 -1 -1 -2 -2 -2 -2 -2 -2 -2 -2 -3 -3 -3 -4 -4 -4 -5 -5 -5 -5 -6 -6 -6 -6 -6 -6
1 1 0 -0 -0 -1 -1 -1 -1 -1 -1 -1 -1 -1 -1 -1 -1 -1 -2 -2 -2 -2 -2 -2 -2 -2 -2 -3 -3 -3 -4 -4 -4 -5 -5 -5 -6 -6 -6 -6 -7 -7 -7
1 1 0 -0 -0 -1 -1 -1 -1 -1 -1 -1 -1 -1 -1 -1 -1 -2 -2 -2 -2 -2 -2 -2 -2 -2 -2 -3 -3 -3 -4 -4 -4 -5 -5 -6 -6 -6 -6 -7 -7 -7 -7
1 0 0 -0 -0 -1 -1 -1 -1 -1 -1 -1 -1 -1 -1 -1 -2 -1 -2 -2 -2 -2 -2 -2 -2 -2 -2 -3 -3 -3 -4 -4 -5 -5 -5 -6 -6 -6 -7 -7 -7 -7 -7
0 0 -0 -0 -0 -1 -1 -1 -1 -1 -1 -1 -1 -1 -1 -1 -1 -1 -2 -2 -2 -2 -2 -2 -2 -2 -2 -3 -3 -3 -4 -4 -5 -5 -5 -6 -6 -7 -7 -7 -7 -8 -8
-0 -0 -0 -0 -1 -1 -1 -1 -1 -1 -1 -1 -1 -1 -2 -2 -2 -2 -2 -2 -2 -2 -2 -2 -2 -2 -3 -3 -3 -4 -4 -4 -5 -5 -6 -6 -6 -7 -7 -7 -8 -8 -8
-1 -1 -1 -1 -1 -1 -1 -1 -1 -1 -2 -2 -2 -2 -2 -2 -2 -2 -2 -2 -2 -2 -2 -3 -3 -3 -3 -3 -4 -4 -4 -4 -5 -5 -6 -6 -6 -7 -7 -8 -8 -8 -8
-1 -1 -1 -1 -1 -1 -1 -2 -2 -2 -2 -2 -2 -2 -2 -2 -2 -2 -2 -2 -2 -3 -3 -3 -3 -3 -3 -4 -4 -4 -4 -5 -5 -6 -6 -6 -7 -7 -7 -8 -8 -8 -8
-1 -1 -1 -2 -2 -2 -2 -2 -2 -2 -2 -2 -2 -2 -3 -3 -3 -3 -3 -3 -3 -3 -3 -4 -4 -4 -4 -4 -5 -5 -5 -5 -6 -6 -6 -7 -7 -7 -8 -8 -8 -8 -9
-2 -2 -2 -2 -2 -2 -3 -3 -3 -3 -3 -3 -3 -3 -3 -3 -3 -3 -3 -3 -3 -4 -4 -4 -4 -4 -5 -5 -5 -5 -6 -6 -6 -7 -7 -7 -7 -7 -8 -8 -8 -9 -9
Wind_Speed
6 5 5 4 4 3 3 2 2 1 1 1 1 1 1 1 1 1 2 2 3 3 3 3 3 3 3 2 2 2 1 1 2 2 2 2 3 4 5 6 6 6 8
6 5 5 4 4 3 3 3 2 2 2 1 1 2 2 2 2 2 3 3 4 4 4 5 4 4 4 3 3 3 2 1 2 3 2 2 3 3 3 4 5 5 6
6 6 5 4 4 4 3 3 3 3 3 2 2 2 3 3 3 3 4 5 5 5 5 5 5 5 5 4 4 4 3 3 3 3 3 2 2 2 2 2 3 3 4
6 6 5 4 4 4 4 4 3 3 3 3 3 3 3 3 4 5 5 6 7 7 7 6 6 5 5 5 5 5 4 4 4 4 4 2 2 1 1 2 1 2 2
7 6 5 5 5 4 4 4 4 4 4 4 4 4 4 4 4 5 6 7 7 8 7 7 7 8 8 6 5 4 4 4 4 4 3 3 2 1 1 2 2 2 1
7 6 6 6 5 5 5 5 4 4 4 4 4 4 4 4 6 7 7 7 7 7 7 7 7 8 9 10 9 8 6 4 3 3 3 2 2 1 1 1 2 3 1
8 7 7 7 6 6 5 5 5 5 5 4 4 4 5 6 8 8 8 7 7 6 6 6 5 5 6 6 8 8 8 8 5 2 3 2 2 1 0 1 2 3 3
9 8 8 7 7 6 6 6 5 5 5 4 5 5 5 6 8 9 9 7 6 6 5 5 5 5 4 4 4 4 5 5 4 3 2 2 1 1 0 1 2 4 5
9 9 9 8 8 7 7 6 5 5 5 4 4 5 5 6 8 9 7 5 5 5 4 4 3 4 5 4 3 3 3 3 4 4 4 3 2 1 1 2 2 3 3
10 9 9 9 8 8 7 7 5 5 5 5 5 4 5 5 8 8 6 4 5 4 4 3 3 2 4 3 2 3 3 2 2 2 2 2 1 1 1 2 2 3 3
9 9 9 9 8 8 7 6 7 6 6 5 5 4 4 5 7 8 7 3 4 4 4 3 3 3 3 3 3 2 1 1 2 2 2 2 2 2 2 2 2 3 3
9 9 9 9 8 7 8 7 7 7 7 6 6 5 4 4 5 7 8 6 5 4 3 3 3 4 3 3 3 2 3 3 2 2 3 3 2 2 2 3 3 5 6
9 9 9 9 8 8 9 9 8 7 6 6 6 6 5 5 5 7 8 8 7 4 3 3 4 4 4 4 4 3 3 3 3 4 4 3 3 2 3 3 4 6 8
10 9 9 9 8 8 7 7 8 8 7 7 7 7 6 6 6 6 6 6 8 6 4 4 5 5 4 4 4 4 4 4 4 4 4 3 3 3 4 4 4 4 5
9 9 8 8 8 8 8 8 9 8 8 9 8 7 7 7 9 11 8 7 6 6 5 4 5 5 5 5 5 5 5 5 5 4 4 4 4 4 4 4 4 4 5
8 9 8 7 7 7 7 6 9 9 11 13 10 8 7 8 8 12 14 12 11 10 7 6 6 6 6 6 6 6 6 5 5 5 5 5 5 5 5 5 5 6 6
9 9 8 8 8 8 8 8 7 8 12 13 14 14 13 11 12 12 13 13 13 13 9 8 7 7 6 6 6 6 6 6 5 5 6 6 6 5 6 6 6 6 7
9 9 8 8 8 8 8 8 7 7 7 7 11 16 16 15 14 14 14 12 10 11 9 9 8 7 7 7 7 7 6 6 6 6 6 6 6 6 6 7 7 7 7
8 7 7 7 7 7 7 7 7 8 8 7 6 8 14 15 15 15 14 10 10 10 10 9 9 8 8 7 7 7 7 7 7 7 7 7 7 7 7 7 7 10 9
7 9 8 7 7 7 7 7 8 8 8 8 8 8 7 9 9 10 11 11 10 10 10 9 9 9 8 8 8 7 7 8 8 8 8 7 7 7 8 9 8 8 8
6 7 10 8 7 7 8 8 8 8 9 9 9 9 12 9 10 11 10 11 11 11 10 10 9 9 9 8 8 9 10 8 8 8 8 8 8 8 8 8 9 9 9
4 5 6 7 7 7 8 8 8 8 9 10 8 8 15 11 9 9 10 10 11 10 10 9 9 9 9 9 9 9 9 9 9 9 8 8 8 8 8 9 9 9 9
4 5 6 6 6 9 9 8 8 9 9 9 8 8 8 10 10 10 10 10 9 9 9 9 9 9 9 11 12 10 10 10 9 9 9 8 8 8 9 10 11 11 11
4 5 6 6 6 7 7 8 8 9 9 9 9 9 9 9 10 10 10 9 9 9 9 10 10 12 13 12 12 13 14 14 12 11 12 10 9 9 9 10 11 12 12
4 5 5 6 6 6 7 7 8 8 8 8 9 9 9 9 9 10 9 9 10 10 11 11 11 12 15 16 15 14 16 18 16 13 12 10 11 11 11 12 11 12 12
5 5 5 5 6 6 6 7 7 8 8 8 8 8 8 8 9 9 8 8 9 9 9 10 13 14 15 15 17 18 18 19 19 19 15 11 11 11 12 11 14 13 14
Wind_Direction
147 142 140 136 133 139 144 145 146 144 147 158 153 146 132 112 111 132 131 130 125 106 94 102 92 84 88 76 77 90 90 179 183 125 94 59 48 42 41 41 36 36 38
145 142 137 132 134 136 131 127 125 126 120 116 118 118 104 97 104 122 117 113 117 113 106 103 97 93 86 76 82 85 81 71 149 148 118 79 61 46 41 43 37 33 32
150 147 144 143 143 139 133 128 123 121 115 109 113 112 108 104 104 106 110 106 101 98 99 102 101 101 92 82 80 83 80 78 89 128 123 103 80 52 45 45 40 28 24
156 156 154 152 148 142 136 132 126 123 120 112 108 107 107 105 107 110 110 107 101 94 89 89 89 92 96 95 86 84 89 94 100 115 119 116 102 64 28 12 11 13 6
163 162 159 152 147 145 141 136 131 126 121 119 115 112 113 111 115 121 116 113 110 102 93 87 84 86 84 82 84 87 92 102 110 117 124 128 123 114 48 7 337 331 351
171 169 160 157 155 153 150 146 141 135 130 128 125 125 120 113 121 123 122 117 114 112 106 98 92 87 88 86 81 74 69 90 112 124 134 144 141 118 58 356 337 328 318
176 171 168 166 163 161 158 156 152 147 140 134 128 126 120 122 129 126 123 119 116 114 115 111 100 93 92 95 90 85 75 66 62 98 135 141 145 130 350 313 341 322 310
177 176 175 173 170 167 167 165 159 151 147 140 133 129 122 124 129 128 125 117 115 116 116 119 121 118 108 114 111 99 89 79 72 76 99 104 96 105 248 279 295 293 286
184 183 181 178 175 174 175 169 161 155 149 146 140 140 135 135 139 139 136 129 127 124 121 125 130 129 125 132 134 128 121 106 86 74 68 76 68 25 310 271 288 301 297
190 185 181 181 181 182 179 170 163 159 155 153 147 151 152 151 153 156 156 148 147 145 146 144 141 148 148 163 166 168 171 152 153 155 162 163 184 148 253 270 276 276 285
181 178 179 183 185 181 175 170 163 160 159 162 160 165 169 169 169 172 176 176 170 167 171 177 170 171 178 180 200 204 200 205 213 226 234 230 230 233 245 266 267 255 262
172 176 180 182 180 175 172 169 169 167 169 174 176 179 184 186 191 189 191 194 187 184 188 190 188 199 212 203 211 210 201 213 232 238 244 245 246 251 260 273 271 265 259
174 179 180 181 181 179 178 175 174 178 183 185 188 193 194 196 200 205 202 198 195 199 197 198 205 208 210 215 217 212 210 228 239 242 246 247 251 263 268 267 263 261 264
180 183 182 183 184 183 185 184 186 189 192 194 197 202 200 201 203 202 203 203 202 204 202 200 209 211 221 226 217 218 230 241 246 250 253 252 247 246 252 261 272 281 282
186 186 186 189 188 189 193 197 201 205 203 201 204 204 202 209 210 205 202 203 202 201 194 202 211 214 219 220 224 228 229 229 234 240 244 247 248 251 255 256 260 266 265
189 192 192 192 193 193 195 203 215 216 216 218 217 212 217 222 213 211 214 215 213 206 205 220 223 224 227 229 229 229 228 228 230 232 238 244 248 251 257 256 255 258 265
198 196 194 195 195 196 197 201 205 215 222 225 224 222 223 222 220 217 215 215 215 212 221 229 231 230 231 231 233 233 233 228 222 228 236 240 243 246 251 255 255 258 264
206 203 199 201 200 201 202 204 206 206 207 217 223 226 226 225 222 219 217 213 218 219 227 232 232 232 231 231 231 231 232 227 222 227 233 236 238 242 247 252 254 257 264
209 209 205 204 203 204 203 203 207 211 216 216 210 218 223 224 223 222 216 218 221 223 225 230 232 232 231 230 230 228 228 228 228 227 232 234 234 238 245 249 254 258 260
216 212 205 204 204 205 204 205 209 213 216 218 219 215 203 205 213 216 216 220 226 229 228 230 230 229 228 227 226 225 226 228 228 229 232 233 233 235 242 247 251 255 258
220 216 210 211 211 209 208 210 212 214 218 223 225 218 205 207 215 217 217 221 224 228 228 229 229 227 225 224 223 223 225 229 229 229 230 232 232 235 240 244 249 252 257
221 219 215 216 214 213 215 215 216 219 222 227 230 224 221 220 224 225 224 226 227 228 227 226 228 226 223 220 219 221 224 228 228 226 229 229 230 235 239 242 246 251 254
229 227 225 224 220 220 220 220 219 222 225 227 227 222 219 222 227 229 230 230 227 227 226 225 228 229 226 223 221 220 224 227 226 224 225 229 231 234 237 240 244 249 252
238 234 234 232 227 226 225 225 224 225 226 227 227 227 226 226 229 231 233 233 231 230 227 225 228 230 227 225 225 224 228 230 227 225 224 229 233 237 239 242 246 249 252
253 245 241 237 234 234 235 234 232 232 231 230 230 231 231 231 232 234 234 233 231 232 231 229 230 233 233 230 229 228 230 232 230 227 224 227 233 235 239 243 246 251 252
265 259 254 249 244 241 239 238 237 237 237 236 235 235 235 234 235 236 235 234 233 234 235 234 233 233 235 235 235 235 237 238 238 235 231 233 235 238 239 244 249 250 256
Height
1504 1505 1507 1508 1509 1510 1511 1511 1512 1512 1513 1513 1513 1513 1513 1513 1512 1512 1512 1512 1512 1512 1512 1512 1512 1513 1513 1513 1513 1513 1514 1515 1515 1514 1514 1514 1513 1513 1512 1512 1511 1510 1509
1500 1502 1503 1504 1505 1506 1506 1507 1508 1508 1508 1508 1508 1508 1508 1508 1508 1508 1508 1508 1508 1508 1508 1509 1509 1509 1509 1509 1510 1510 1510 1510 1511 1510 1510 1510 1510 1510 1509 1509 1508 1508 1507
1497 1498 1499 1500 1501 1502 1502 1503 1503 1504 1504 1504 1504 1504 1504 1504 1504 1504 1504 1504 1504 1505 1505 1505 1506 1506 1506 1506 1506 1506 1507 1507 1507 1507 1507 1507 1507 1507 1507 1506 1506 1505 1504
1494 1495 1496 1497 1498 1498 1499 1499 1499 1500 1500 1500 1500 1500 1500 1500 1501 1501 1501 1501 1501 1502 1502 1502 1503 1503 1503 1503 1504 1504 1504 1504 1504 1505 1505 1505 1505 1504 1504 1504 1503 1503 1502
1491 1492 1493 1494 1494 1495 1495 1495 1496 1496 1497 1497 1497 1497 1497 1497 1497 1498 1498 1498 1499 1499 1499 1500 1500 1500 1501 1501 1502 1502 1502 1502 1502 1502 1502 1502 1502 1502 1502 1501 1501 1500 1499
1488 1489 1490 1490 1491 1491 1492 1492 1492 1493 1493 1494 1494 1494 1494 1494 1495 1495 1496 1496 1496 1497 1497 1497 1498 1498 1499 1499 1499 1500 1500 1500 1500 1500 1500 1500 1500 1500 1499 1499 1498 1498 1497
1485 1486 1487 1487 1488 1488 1489 1489 1489 1490 1490 1491 1491 1491 1492 1492 1493 1493 1493 1494 1494 1495 1495 1496 1496 1497 1497 1497 1497 1498 1498 1498 1498 1498 1498 1498 1498 1497 1497 1496 1496 1496 1495
1482 1483 1483 1484 1484 1485 1485 1486 1486 1487 1488 1488 1489 1489 1490 1490 1490 1491 1492 1492 1493 1493 1494 1494 1495 1495 1495 1495 1495 1496 1496 1495 1495 1495 1496 1496 1496 1495 1495 1495 1494 1493 1492
1478 1479 1480 1481 1481 1482 1482 1483 1484 1485 1486 1486 1487 1488 1488 1488 1489 1490 1491 1491 1492 1492 1492 1493 1493 1493 1494 1494 1494 1494 1494 1494 1494 1493 1493 1493 1493 1493 1493 1492 1491 1491 1490
1474 1476 1477 1477 1478 1479 1480 1480 1481 1482 1483 1484 1485 1486 1487 1487 1488 1489 1489 1490 1490 1491 1491 1491 1491 1492 1492 1492 1492 1492 1492 1492 1492 1491 1491 1491 1491 1490 1490 1490 1489 1488 1487
1471 1472 1473 1474 1475 1476 1477 1478 1479 1480 1481 1482 1483 1484 1485 1486 1486 1487 1488 1488 1489 1489 1489 1490 1490 1490 1490 1490 1490 1490 1490 1490 1490 1489 1489 1489 1488 1488 1487 1487 1486 1486 1485
1467 1468 1469 1471 1471 1472 1474 1475 1476 1478 1479 1480 1481 1482 1483 1484 1485 1485 1486 1487 1487 1488 1488 1488 1488 1488 1488 1488 1488 1488 1488 1488 1487 1487 1487 1486 1486 1485 1484 1484 1483 1482 1481
1463 1465 1466 1467 1468 1469 1471 1472 1473 1475 1476 1477 1478 1480 1481 1481 1482 1483 1484 1484 1485 1485 1486 1486 1486 1486 1486 1486 1486 1486 1485 1485 1485 1484 1484 1483 1483 1482 1481 1480 1479 1478 1477
1460 1461 1462 1464 1465 1466 1467 1469 1470 1471 1473 1474 1475 1477 1478 1479 1480 1480 1481 1482 1482 1483 1483 1483 1483 1483 1483 1483 1483 1482 1482 1482 1481 1481 1480 1480 1479 1478 1477 1476 1475 1474 1473
1457 1458 1459 1460 1461 1463 1464 1465 1467 1469 1470 1472 1473 1474 1475 1476 1477 1478 1478 1479 1480 1480 1480 1480 1480 1480 1480 1480 1479 1479 1479 1478 1478 1477 1477 1476 1475 1474 1473 1472 1471 1470 1469
1453 1454 1455 1456 1458 1459 1460 1462 1463 1465 1467 1468 1469 1471 1472 1473 1474 1474 1476 1476 1477 1477 1477 1477 1477 1477 1476 1476 1476 1475 1475 1474 1474 1473 1473 1472 1471 1470 1469 1468 1467 1466 1464
1449 1450 1451 1452 1454 1455 1457 1458 1459 1461 1463 1464 1465 1466 1468 1469 1470 1471 1472 1473 1473 1473 1473 1473 1473 1472 1472 1472 1471 1471 1470 1470 1469 1469 1468 1467 1466 1465 1464 1463 1462 1461 1459
1446 1446 1447 1448 1450 1451 1453 1454 1456 1457 1458 1459 1461 1462 1464 1465 1466 1467 1468 1468 1468 1468 1468 1468 1468 1468 1467 1467 1466 1466 1465 1465 1464 1463 1463 1462 1461 1460 1459 1458 1457 1456 1454
1441 1442 1443 1444 1445 1447 1448 1450 1451 1452 1454 1455 1456 1458 1459 1460 1461 1462 1462 1462 1462 1463 1463 1463 1463 1462 1462 1461 1461 1460 1460 1459 1459 1458 1457 1457 1456 1455 1454 1453 1452 1450 1449
1437 1438 1439 1439 1440 1442 1443 1444 1445 1447 1448 1449 1451 1452 1454 1455 1455 1455 1456 1456 1456 1456 1457 1457 1457 1456 1456 1456 1455 1455 1454 1453 1453 1452 1451 1450 1450 1449 1447 1447 1445 1444 1443
1433 1433 1434 1435 1435 1437 1438 1439 1440 1441 1442 1443 1445 1446 1448 1448 1448 1449 1450 1450 1450 1450 1450 1450 1450 1450 1449 1449 1449 1448 1447 1447 1446 1445 1445 1444 1443 1442 1441 1440 1439 1438 1436
1428 1428 1429 1430 1431 1431 1432 1433 1434 1435 1436 1437 1438 1439 1440 1441 1441 1442 1442 1442 1443 1443 1443 1443 1443 1443 1442 1442 1442 1441 1440 1440 1439 1438 1438 1437 1436 1435 1434 1433 1432 1431 1430
1424 1424 1424 1425 1425 1426 1427 1427 1428 1428 1429 1430 1431 1432 1432 1433 1433 1434 1434 1435 1435 1435 1435 1435 1435 1435 1435 1434 1434 1433 1433 1432 1432 1431 1430 1429 1428 1428 1427 1426 1425 1424 1423
1419 1419 1420 1420 1420 1420 1421 1421 1421 1422 1422 1423 1423 1424 1424 1425 1425 1425 1426 1426 1426 1426 1426 1426 1426 1426 1426 1426 1426 1425 1425 1425 1424 1423 1423 1422 1421 1420 1419 1418 1417 1416 1415
1415 1415 1414 1414 1414 1414 1414 1414 1415 1415 1415 1415 1416 1416 1417 1417 1417 1417 1417 1417 1417 1417 1417 1417 1417 1417 1417 1417 1417 1417 1417 1417 1416 1415 1414 1414 1413 1412 1411 1410 1409 1408 1407
1410 1409 1409 1409 1408 1408 1408 1408 1408 1408 1408 1408 1408 1408 1409 1409 1409 1409 1409 1408 1408 1408 1408 1408 1408 1408 1408 1408 1408 1408 1408 1408 1408 1407 1406 1405 1405 1404 1403 1402 1401 1400 1399